Regional Weather Roundup
Issued by NWS

Home | Current Version | Previous Version | Text Only | Print | Product List | Glossary Off
Versions: 1 2 3 4 5 6 7 8 9 10 11 12 13 14 15 16 17 18 19 20 21 22 23 24 25 26 27 28 29 30 31 32 33 34 35 36 37 38 39 40 41 42 43 44 45 46 47 48 49 50

000
ASUS43 KMPX 271510
RWRMN
WEATHER ROUNDUP FOR MINNESOTA
NATIONAL WEATHER SERVICE TWIN CITIES/CHANHASSEN MN
1000 AM CDT THU AUG 27 2015


NOTE: "FAIR" INDICATES FEW OR NO CLOUDS BELOW 12,000 FEET WITH NO
SIGNIFICANT WEATHER AND/OR OBSTRUCTIONS TO VISIBILITY. N/A MEANS
CURRENT SKY AND/OR WEATHER CONDITIONS ARE NOT AVAILABLE.

MNZ060>063-068>070-271600-
   Twin Cities Metro

CITY           SKY/WX    TMP DP  RH WIND       PRES   REMARKS
TWIN CITIES    PTSUNNY   66  55  67 SE7       30.10S
ST PAUL        CLOUDY    65  56  72 SE9       30.10F
CRYSTAL        PTSUNNY   69  56  62 SE9       30.07F
BLAINE         PTSUNNY   70  57  64 S8        30.09F
LAKEVILLE      CLOUDY    64  57  77 S6        30.11S
EDEN PRAIRIE   CLOUDY    68  56  65 S8        30.08S
SOUTH ST PAUL  CLOUDY    65  55  71 SE5       30.10F
LAKE ELMO      CLOUDY    64  57  77 S8        30.12S
$$
MNZ001>005-007-008-013>017-022>024-027-028-271600-
   Northwest Minnesota

CITY           SKY/WX    TMP DP  RH WIND       PRES   REMARKS
BEMIDJI        SUNNY     62  54  74 SE5       30.03S
HALLOCK        SUNNY     64  57  77 S6        29.98F
ROSEAU         SUNNY     63  55  77 S5        30.01F
WARROAD        SUNNY     63  57  82 CALM      30.02F
THIEF RVR FALL SUNNY    N/A N/A N/A S6        30.00S
CROOKSTON      MOSUNNY   64  57  77 S5        29.99F
FOSSTON        MOSUNNY   64  57  77 CALM      30.01F
DETROIT LAKES  MOSUNNY   64  57  77 SE7       30.01F
MOORHEAD       MOSUNNY   66  59  77 S8        29.98F
PARK RAPIDS    CLOUDY    64  53  67 SE8       30.02F
MAHNOMEN       PTSUNNY   64  58  79 SE5       29.99F
$$
MNZ006-009>011-018-025>026-271600-
   North Central Minnesota

CITY           SKY/WX    TMP DP  RH WIND       PRES   REMARKS
BAUDETTE       SUNNY     62  54  74 S7        30.03F
FLAG ISLAND    SUNNY     64  57  77 S6        30.01S
INTL FALLS     SUNNY     62  54  74 VRB6      30.05F
WASKISH        SUNNY     64  57  77 SE5       30.03S
BIG FORK       SUNNY     64  55  72 S5        30.05F
LONGVILLE      CLOUDY    63  57  82 SE5       30.04F
GRAND RAPIDS   SUNNY     61  52  72 SE6       30.07F
CRANE LAKE     SUNNY     59  54  82 S2        30.08F
ORR            SUNNY     61  52  72 S6        30.05F
COOK           SUNNY     63  55  77 S5        30.08F
WALKER         CLOUDY    63  55  75 SE5       30.03F
$$
MNZ012-019>021-037-271600-
   Northeast Minnesota

CITY           SKY/WX    TMP DP  RH WIND       PRES   REMARKS
DULUTH         SUNNY     63  53  70 SE6       30.10F
ELY            SUNNY     63  54  72 S7        30.09F
HIBBING        SUNNY     60  52  74 S6        30.09F
EVELETH        SUNNY     59  52  77 CALM      30.10F
DULUTH HARBOR  SUNNY     55  52  88 NE6       30.11F
TWO HARBORS    SUNNY     64  55  72 CALM      30.09F
SILVER BAY     SUNNY     63  52  67 CALM      30.10S
GRAND MARAIS     N/A     56  47  71 E3        30.11F
G MARAIS ARPRT SUNNY     63  46  55 S5        30.12F
$$
MNZ029>031-032-039>041-046>048-054>057-064-271600-
   West Central Minnesota

CITY           SKY/WX    TMP DP  RH WIND       PRES   REMARKS
FERGUS FALLS   SUNNY     66  57  72 SE7       29.99F
WHEATON        MOSUNNY   64  59  82 SE7       29.99S
MORRIS         PTSUNNY   66  59  77 SE13      29.99S
ALEXANDRIA     MOSUNNY   66  58  75 SE9       30.02F
ELBOW LAKE     FAIR      65  58  80 SE7       29.99F
WADENA         MOSUNNY   64  55  72 S9        30.01F
GLENWOOD       PTSUNNY   66  57  72 SE8       30.01F
APPLETON       CLOUDY    63  57  82 SE10      29.98F
BENSON         PTSUNNY   64  55  72 S8        30.00F
ORTONVILLE     CLOUDY    63  57  82 E7        29.97F
MADISON        CLOUDY    64  59  82 E6        29.97F
WILLMAR        FAIR      63  57  82 SE9       30.03F
$$
MNZ033>034-036-042>043-049>051-058-059-271600-
   Central Minnesota

CITY           SKY/WX    TMP DP  RH WIND       PRES   REMARKS
ST CLOUD       CLOUDY    66  57  72 SE12      30.04F
SAUK CENTRE    FAIR      65  57  76 SE7       30.03F
PAYNESVILLE    PTSUNNY   66  56  70 E9        30.04F
AITKIN         PTSUNNY   66  57  72 S6        30.05S
PINE RIVER     CLOUDY    63  55  77 SE8       30.07F
BRAINERD       SUNNY     67  55  65 S9        30.05F
STAPLES        MOSUNNY   64  54  68 S8        30.03S
LONG PRAIRIE   PTSUNNY   63  55  77 SE9       30.03F
LITTLE FALLS   PTSUNNY   64  54  68 SE8       30.04F
LITCHFIELD     CLOUDY    66  59  77 SE9       30.05F
BUFFALO        PTSUNNY   67  55  67 SE7       30.07F
MAPLE LAKE     CLOUDY    67  60  77 SE3       30.07F
$$
MNZ037-044-045-052-053-271600-
   East Central Minnesota

CITY           SKY/WX    TMP DP  RH WIND       PRES   REMARKS
PRINCETON      CLOUDY    66  57  72 SE6       30.07F
MORA           MOSUNNY   63  55  77 S6        30.10S
CAMBRIDGE      PTSUNNY   66  55  68 SE5       30.07S
MOOSE LAKE     PTSUNNY   61  54  77 CALM      30.08S
HINCKLEY       CLOUDY    61  57  88 SE3       30.10S
CLOQUET        MOSUNNY   61  54  77 SE5       30.10S
MCGREGOR       PTSUNNY   63  55  77 SE6       30.07F
$$
MNZ071>073-080-081-089-090-097-098-271600-
   Southwest Minnesota

CITY           SKY/WX    TMP DP  RH WIND       PRES   REMARKS
MONTEVIDEO     CLOUDY    64  59  82 S7        30.00F
GRANITE FALLS  CLOUDY    64  58  80 E9        30.00F
CANBY          CLOUDY    64  60  88 E5        29.98F
MARSHALL       CLOUDY    68  57  68 E9        29.97F
REDWOOD FALLS  CLOUDY    64  56  75 SE12      30.01F
OLIVIA         CLOUDY    61  54  77 SE8       30.02F
PIPESTONE      CLOUDY    64  61  88 E5        29.96R
WINDOM         CLOUDY    64  57  77 SE10      30.03F
WORTHINGTON    CLOUDY    61  54  77 SE14G22   29.95F
JACKSON        CLOUDY    63  55  77 S10       30.06F
TRACY          CLOUDY    67  61  79 SE8       29.98F
SLAYTON        CLOUDY    64  60  87 E16       29.93F
$$
MNZ065>067-074>077-082>085-091>093-271600-
   South Central Minnesota

CITY           SKY/WX    TMP DP  RH WIND       PRES   REMARKS
MANKATO        CLOUDY    64  55  72 S13       30.09F
NEW ULM        CLOUDY    64  57  77 S12       30.06F
FAIRMONT       CLOUDY    63  54  72 S13       30.08F
GLENCOE        CLOUDY    65  58  77 SE6       30.07F
FARIBAULT      CLOUDY    64  57  77 S7        30.12S
OWATONNA       CLOUDY    64  55  72 S8        30.13R
WASECA         CLOUDY    63  55  77 SE8       30.12F
ALBERT LEA     CLOUDY    64  55  72 S7        30.14R
$$
MNZ078>079-086>088-094>096-271600-
   Southeast Minnesota

CITY           SKY/WX    TMP DP  RH WIND       PRES   REMARKS
ROCHESTER      PTSUNNY   64  57  78 S8        30.14F
RED WING       CLOUDY    64  55  72 SE5       30.11F
STANTON        CLOUDY    66  57  72 S6        30.11R
DODGE CENTER   PTSUNNY   63  57  82 S6        30.13S
WINONA         MOSUNNY   61  55  82 CALM      30.14S
AUSTIN         CLOUDY    64  57  77 S7        30.13R
PRESTON        MOSUNNY   64  56  77 S6        30.14F
$$
ABBREVIATIONS USED IN REMARKS
   TC - TEMPERATURES IN CELSIUS
  WCI - WIND CHILL INDEX
   HX - HEAT INDEX
  VSB - VISIBILITY
$$


USA.gov is the U.S. government's official web portal to all federal, state and local government web resources and services.